Location: Cardiff
(53.7833°N, 113.6000°W)
Time: 12:25:56
(UTC+00:00)

SO-50 - Visible Passes

Search period start: 05 December 2023 00:00
Search period end: 15 December 2023 00:00
Orbit: 601 x 670 km, 64.6° (Epoch: 04 December)

Date Brightness Start Highest point End Pass type
(mag) Time Alt. Az. Time Alt. Az. Time Alt. Az.
05 Dec ? 11:26:32 21° ENE 11:26:32 21° ENE 11:28:08 10° NE visible
05 Dec ? 13:04:01 40° NNW 13:04:02 40° NNW 13:08:26 10° NE visible
05 Dec ? 14:41:44 10° WNW 14:45:24 22° N 14:49:02 10° NE visible
06 Dec ? 11:48:47 25° NE 11:48:47 25° NE 11:50:46 10° NE visible
06 Dec ? 13:26:16 28° NW 13:26:57 29° NNW 13:31:01 10° NE visible
07 Dec ? 12:10:58 28° NNE 12:10:58 28° NNE 12:13:19 10° NE visible
07 Dec ? 13:48:26 20° NW 13:49:58 24° NNW 13:53:44 10° NE visible
08 Dec ? 12:33:04 28° N 12:33:04 28° N 12:35:52 10° NE visible
08 Dec ? 14:10:33 15° NW 14:13:03 22° N 14:16:37 10° NE visible
09 Dec ? 11:17:40 13° NE 11:17:40 13° NE 11:18:11 10° NE visible
09 Dec ? 12:55:08 26° N 12:55:08 26° N 12:58:28 10° NE visible
09 Dec ? 14:32:37 10° NW 14:36:09 22° N 14:39:43 10° ENE visible
10 Dec ? 11:39:42 16° NE 11:39:42 16° NE 11:40:42 10° NE visible
10 Dec ? 13:17:10 22° NNW 13:17:34 23° N 13:21:14 10° NE visible
10 Dec ? 14:55:22 10° NW 14:59:12 25° NNE 15:02:58 10° ENE visible
11 Dec ? 12:01:42 18° NNE 12:01:42 18° NNE 12:03:15 10° NE visible
11 Dec ? 13:39:10 19° NNW 13:40:39 21° N 13:44:11 10° NE visible
12 Dec ? 12:23:41 20° NNE 12:23:41 20° NNE 12:25:53 10° NE visible
12 Dec ? 14:01:09 15° NNW 14:03:43 23° N 14:07:21 10° ENE visible
13 Dec ? 12:45:39 21° N 12:45:39 21° N 12:48:42 10° NE visible
13 Dec ? 14:23:07 12° NW 14:26:43 27° NNE 14:30:36 10° ENE visible
14 Dec ? 11:30:08 12° NE 11:30:08 12° NE 11:30:35 10° NE visible
14 Dec ? 13:07:36 21° N 13:08:11 22° N 13:11:44 10° NE visible
14 Dec ? 14:45:22 10° NW 14:49:37 36° NNE 14:53:48 10° E visible
